Regional Weather Roundup
Issued by NWS

Home | Current Version | Previous Version | Text Only | Print | Product List | Glossary On
Versions: 1 2 3 4 5 6 7 8 9 10 11 12 13 14 15 16 17 18 19 20 21 22 23 24 25 26 27 28 29 30 31 32 33 34 35 36 37 38 39 40 41 42 43 44 45 46 47 48 49 50
000
ASUS43 KLSX 250259
RWRMO

WEATHER SUMMARY FOR MISSOURI
NATIONAL WEATHER SERVICE SPRINGFIELD MO
1000 PM CDT SUN MAY 24 2015

NOTE: "FAIR" INDICATES FEW OR NO CLOUDS BELOW 12,000 FEET WITH NO
       SIGNIFICANT WEATHER AND/OR OBSTRUCTIONS TO VISIBILITY.
       CURRENT SKY AND/OR WEATHER CONDITIONS ARE NOT AVAILABLE FOR
       CHILLICOTHE AND FARMINGTON.

MOZ001>031-035>038-043-044-053-054-250400-
...NORTHERN AND WESTERN MISSOURI...

CITY           SKY/WX    TMP DP  RH WIND       PRES   REMARKS
KANSAS CTY INT CLOUDY    62  61  96 S6        29.82R
KANSAS C DTWN  CLOUDY    65  61  87 S5        29.81R
LEE`S SUMMIT   CLOUDY    65  62  90 S5        29.83S
ST JOSEPH      CLOUDY    65  62  90 S3        29.82R
KIRKSVILLE     LGT RAIN  65  64  97 S6        29.84S

$$
MOZ066>068-077>081-088>096-101>105-250400-
...SOUTHWEST MISSOURI...

CITY           SKY/WX    TMP DP  RH WIND       PRES   REMARKS
SPRINGFIELD    CLOUDY    63  61  93 SE5       29.85S
JOPLIN         HVY RAIN  63  62  97 NW7       29.87R VSB 1/2

$$
MOZ032>034-039>042-045>050-055>058-069>072-250400-
...CENTRAL MISSOURI...

CITY           SKY/WX    TMP DP  RH WIND       PRES   REMARKS
COLUMBIA       LGT RAIN  68  66  93 CALM      29.83F
JEFFERSON CITY CLOUDY    68  67  96 SE3       29.83F
ROLLA          CLOUDY    67  65  93 S12       29.85R
SEDALIA        LGT RAIN  66  64  93 CALM      29.84F FOG
WHITEMAN AFB   LGT RAIN  64  64 100 SE2       29.83F
OSAGE BEACH    CLOUDY    66  63  88 E6        29.82F

$$
MOZ051-052-059>065-250400-
...EAST CENTRAL MISSOURI...

CITY           SKY/WX    TMP DP  RH WIND       PRES   REMARKS
ST LOUIS INTL  HVY RAIN  72  64  78 S16G24    29.92R
SPIRIT OF STL  RAIN      70  67  90 S8G21     29.88S FOG
ST CHARLES     RAIN      72  66  81 S21G30    29.90R

$$
MOZ072>076-082>087-097>100-106>115-250400-
...SOUTH CENTRAL AND SOUTHEAST MISSOURI...

CITY           SKY/WX    TMP DP  RH WIND       PRES   REMARKS
CAPE GIRARDEAU LGT RAIN  68  66  93 W7        29.98F
FARMINGTON     CLOUDY    66  63  88 S9        29.98F
POPLAR BLUFF   LGT RAIN  70  67  90 S10       29.95S
WEST PLAINS    CLOUDY    68  64  87 S12G23    29.93R

$$



USA.gov is the U.S. government's official web portal to all federal, state and local government web resources and services.